Location: Unspecified
(43.4354°N, 0.0000°E)
Time: 14:00:41
(UTC+00:00)

Vanguard 1 Rocket - Pass Details

Date: 17 June 2019
Orbit: 651 x 4225 km, 34.3° (Epoch: 15 July)

Event Time Altitude Azimuth Distance (km) Brightness Sun altitude
Rises 21:08:01 0° 260° (W) 5,229 11.7 -12.3°
Reaches altitude 10° 21:12:25 10° 254° (WSW) 3,666 10.8 -12.8°
Maximum altitude 21:19:58 37° 191° (S) 1,479 8.1 -13.6°
Enters shadow 21:23:09 20° 135° (SE) 1,815 8.3 -14.0°
